Starlink 31946

operational
NORAD ID: 59940 Int'l Des: 2024-106 Owner: SPXS Country: US Constellation: starlink
LEOCIRCULAR

About Starlink 31946

Description loading...

Live Position

Loading 3D Globe...

Upcoming Passes

Altitude History

Altitude vs Time

uPlot chart will show altitude changes over time

Two-Line Element Set

1 59940U 24106U 26018.37706242 -.00000767 00000-0 -18375-4 0 9998
2 59940 42.9997 257.0466 0000750 293.5517 66.5255 15.27580893 83450
Epoch: Jan 18, 2026 • Age: 27 hours

Current Status

Altitude 486.5 km
Velocity 7.63 km/s
Sub-Earth Point 42.71°N, 30.34°E
Launch Date Jun 1, 2024
Age 1.6 years
Type internet

Technical Details

Classification Payload
Mass 730.00 kg
Dry Mass 700.00 kg
Total Mass 730.00 kg
Length 0.30 m
Diameter 4.10 m
Span 29.00 m
Shape Box + pan
Manufacturer SPXS
Bus Type Starlink V2M
Phase Status In Orbit
Owner/State SPXS/US

Large Constellations

Loading constellations...